• In Slovakia
  • List of Countries
  • For 7 days
  • Water Temperature
  • Satellite Maps
  • Weather Map
  • Weather Widgets
  • user-avatar
    Login

    Hourly Weather Townsville

    Today, 18 August, Saturday

    Time Temperature Precipitation Wind Pressure Humidity
    00:00 +19°C° 0 mm 1 mps 755 mmHg 89%
    01:00 +19°C° 0 mm 1 mps 755 mmHg 91%
    02:00 +19°C° 0 mm 1 mps 755 mmHg 92%
    03:00 +19°C° 0 mm 1 mps 755 mmHg 92%
    04:00 +18°C° 0 mm 1 mps 755 mmHg 93%
    05:00 +18°C° 0 mm 1 mps 755 mmHg 93%
    06:00 +18°C° 0 mm 1 mps 755 mmHg 92%
    07:00 +18°C° 0 mm 1 mps 756 mmHg 92%
    08:00 +22°C° 0 mm 1 mps 756 mmHg 74%
    09:00 +26°C° 0 mm 1 mps 756 mmHg 56%
    10:00 +30°C° 0 mm 1 mps 756 mmHg 39%
    11:00 +31°C° 0 mm 1 mps 756 mmHg 34%
    12:00 +32°C° 0 mm 2 mps 755 mmHg 29%
    13:00 +32°C° 0 mm 2 mps 755 mmHg 24%
    14:00 +33°C° 0 mm 3 mps 754 mmHg 26%
    15:00 +31°C° 0 mm 3 mps 754 mmHg 29%
    16:00 +32°C° 0 mm 4 mps 754 mmHg 31%
    17:00 +28°C° 0 mm 3 mps 754 mmHg 45%
    18:00 +25°C° 0 mm 3 mps 754 mmHg 59%
    19:00 +21°C° 0 mm 2 mps 754 mmHg 74%
    20:00 +20°C° 0 mm 2 mps 755 mmHg 77%
    21:00 +21°C° 0 mm 1 mps 755 mmHg 80%
    22:00 +20°C° 0 mm 1 mps 756 mmHg 83%
    23:00 +20°C° 0 mm 1 mps 756 mmHg 85%

    Tomorrow, 19 August, Sunday

    Time Temperature Precipitation Wind Pressure Humidity
    00:00 +19°C° 0 mm 1 mps 756 mmHg 87%
    01:00 +19°C° 0 mm 1 mps 756 mmHg 89%
    02:00 +19°C° 0 mm 1 mps 756 mmHg 88%
    03:00 +17°C° 0 mm 2 mps 755 mmHg 87%
    04:00 +17°C° 0 mm 2 mps 755 mmHg 85%
    05:00 +17°C° 0 mm 3 mps 756 mmHg 83%
    06:00 +17°C° 0 mm 3 mps 756 mmHg 81%
    07:00 +17°C° 0 mm 3 mps 756 mmHg 78%
    08:00 +20°C° 0 mm 4 mps 757 mmHg 58%
    09:00 +25°C° 0 mm 5 mps 757 mmHg 38%
    10:00 +28°C° 0 mm 6 mps 757 mmHg 18%
    11:00 +29°C° 0 mm 5 mps 757 mmHg 16%
    12:00 +30°C° 0 mm 4 mps 756 mmHg 15%
    13:00 +32°C° 0 mm 4 mps 756 mmHg 13%
    14:00 +32°C° 0 mm 4 mps 755 mmHg 14%
    15:00 +32°C° 0 mm 4 mps 755 mmHg 14%
    16:00 +32°C° 0 mm 4 mps 754 mmHg 14%
    17:00 +28°C° 0 mm 4 mps 755 mmHg 18%
    18:00 +26°C° 0 mm 3 mps 755 mmHg 22%
    19:00 +22°C° 0 mm 3 mps 755 mmHg 25%
    20:00 +21°C° 0 mm 3 mps 756 mmHg 26%
    21:00 +20°C° 0 mm 3 mps 757 mmHg 26%
    22:00 +20°C° 0 mm 3 mps 757 mmHg 27%
    23:00 +19°C° 0 mm 4 mps 757 mmHg 24%

    Day after tomorrow, 20 August, Monday

    Time Temperature Precipitation Wind Pressure Humidity
    00:00 +17°C° 0 mm 5 mps 757 mmHg 22%
    01:00 +17°C° 0 mm 7 mps 757 mmHg 19%
    02:00 +16°C° 0 mm 7 mps 757 mmHg 20%
    03:00 +15°C° 0 mm 7 mps 757 mmHg 21%
    04:00 +14°C° 0 mm 7 mps 757 mmHg 23%
    05:00 +12°C° 0 mm 7 mps 758 mmHg 24%
    06:00 +12°C° 0 mm 7 mps 759 mmHg 25%
    07:00 +11°C° 0 mm 7 mps 759 mmHg 26%
    08:00 +14°C° 0 mm 7 mps 759 mmHg 23%
    09:00 +17°C° 0 mm 7 mps 760 mmHg 20%
    10:00 +20°C° 0 mm 6 mps 760 mmHg 17%
    11:00 +22°C° 0 mm 6 mps 759 mmHg 14%
    12:00 +25°C° 0 mm 5 mps 758 mmHg 12%
    13:00 +26°C° 0 mm 4 mps 757 mmHg 9%
    14:00 +27°C° 0 mm 4 mps 756 mmHg 9%
    15:00 +27°C° 0 mm 4 mps 756 mmHg 10%
    16:00 +27°C° 0 mm 4 mps 756 mmHg 10%
    17:00 +23°C° 0 mm 4 mps 756 mmHg 17%
    18:00 +20°C° 0 mm 4 mps 756 mmHg 24%
    19:00 +17°C° 0 mm 3 mps 757 mmHg 31%
    20:00 +16°C° 0 mm 3 mps 757 mmHg 36%
    21:00 +14°C° 0 mm 3 mps 758 mmHg 42%
    22:00 +14°C° 0 mm 2 mps 759 mmHg 47%
    23:00 +13°C° 0 mm 3 mps 758 mmHg 47%

    21 August, Tuesday

    Time Temperature Precipitation Wind Pressure Humidity
    00:00 +12°C° 0 mm 3 mps 758 mmHg 46%
    01:00 +12°C° 0 mm 3 mps 758 mmHg 45%
    02:00 +11°C° 0 mm 3 mps 757 mmHg 40%
    03:00 +11°C° 0 mm 4 mps 757 mmHg 34%
    04:00 +10°C° 0 mm 4 mps 757 mmHg 28%
    05:00 +10°C° 0 mm 4 mps 757 mmHg 27%
    06:00 +10°C° 0 mm 3 mps 758 mmHg 25%
    07:00 +10°C° 0 mm 3 mps 758 mmHg 24%
    08:00 +13°C° 0 mm 3 mps 758 mmHg 22%
    09:00 +18°C° 0 mm 4 mps 758 mmHg 21%
    10:00 +21°C° 0 mm 4 mps 759 mmHg 19%
    11:00 +23°C° 0 mm 4 mps 758 mmHg 19%
    12:00 +25°C° 0 mm 4 mps 757 mmHg 19%
    13:00 +26°C° 0 mm 4 mps 756 mmHg 19%
    14:00 +26°C° 0 mm 4 mps 755 mmHg 22%
    15:00 +26°C° 0 mm 4 mps 755 mmHg 25%
    16:00 +25°C° 0 mm 4 mps 754 mmHg 29%
    17:00 +22°C° 0 mm 4 mps 754 mmHg 44%
    18:00 +19°C° 0 mm 3 mps 755 mmHg 58%
    19:00 +17°C° 0 mm 3 mps 755 mmHg 73%
    20:00 +16°C° 0 mm 2 mps 756 mmHg 75%
    21:00 +16°C° 0 mm 2 mps 756 mmHg 78%
    22:00 +15°C° 0 mm 2 mps 757 mmHg 80%
    23:00 +15°C° 0 mm 2 mps 756 mmHg 83%

    22 August, Wednesday

    Time Temperature Precipitation Wind Pressure Humidity
    00:00 +15°C° 0 mm 2 mps 756 mmHg 85%
    01:00 +14°C° 0 mm 2 mps 756 mmHg 88%
    02:00 +14°C° 0 mm 2 mps 756 mmHg 89%
    03:00 +14°C° 0 mm 2 mps 756 mmHg 91%
    04:00 +14°C° 0 mm 2 mps 755 mmHg 92%
    05:00 +14°C° 0 mm 2 mps 756 mmHg 92%
    06:00 +14°C° 0 mm 2 mps 756 mmHg 91%
    07:00 +13°C° 0 mm 3 mps 757 mmHg 90%
    08:00 +17°C° 0 mm 3 mps 757 mmHg 74%
    09:00 +21°C° 0 mm 3 mps 757 mmHg 58%
    10:00 +25°C° 0 mm 3 mps 757 mmHg 41%
    11:00 +26°C° 0 mm 3 mps 756 mmHg 37%
    12:00 +27°C° 0 mm 3 mps 755 mmHg 32%
    13:00 +28°C° 0 mm 3 mps 755 mmHg 27%
    14:00 +28°C° 0 mm 3 mps 754 mmHg 31%
    15:00 +27°C° 0 mm 3 mps 754 mmHg 34%
    16:00 +27°C° 0 mm 4 mps 753 mmHg 37%
    17:00 +24°C° 0 mm 3 mps 754 mmHg 49%
    18:00 +21°C° 0 mm 3 mps 754 mmHg 60%
    19:00 +18°C° 0 mm 3 mps 754 mmHg 72%
    20:00 +18°C° 0 mm 3 mps 755 mmHg 71%
    21:00 +18°C° 0 mm 3 mps 755 mmHg 71%
    22:00 +17°C° 0 mm 2 mps 756 mmHg 71%
    23:00 +17°C° 0 mm 2 mps 755 mmHg 73%

    23 August, Thursday

    Time Temperature Precipitation Wind Pressure Humidity
    00:00 +17°C° 0 mm 2 mps 755 mmHg 76%
    01:00 +16°C° 0 mm 2 mps 755 mmHg 78%
    02:00 +16°C° 0 mm 2 mps 755 mmHg 79%
    03:00 +16°C° 0 mm 2 mps 754 mmHg 80%
    04:00 +16°C° 0 mm 2 mps 754 mmHg 82%
    05:00 +16°C° 0 mm 2 mps 755 mmHg 81%
    06:00 +16°C° 0 mm 2 mps 755 mmHg 80%
    07:00 +16°C° 0 mm 2 mps 756 mmHg 80%
    08:00 +19°C° 0 mm 2 mps 756 mmHg 67%
    09:00 +22°C° 0 mm 3 mps 756 mmHg 55%
    10:00 +26°C° 0 mm 3 mps 756 mmHg 43%
    11:00 +27°C° 0 mm 3 mps 755 mmHg 41%
    12:00 +28°C° 0 mm 3 mps 755 mmHg 39%
    13:00 +28°C° 0 mm 4 mps 754 mmHg 38%
    14:00 +28°C° 0 mm 4 mps 753 mmHg 40%
    15:00 +27°C° 0 mm 4 mps 753 mmHg 41%
    16:00 +27°C° 0 mm 3 mps 753 mmHg 43%
    17:00 +25°C° 0 mm 3 mps 753 mmHg 51%
    18:00 +22°C° 0 mm 3 mps 753 mmHg 58%
    19:00 +19°C° 0 mm 4 mps 754 mmHg 66%
    20:00 +19°C° 0 mm 4 mps 754 mmHg 68%
    21:00 +19°C° 0 mm 4 mps 754 mmHg 70%
    22:00 +19°C° 0 mm 4 mps 755 mmHg 72%
    23:00 +19°C° 0 mm 4 mps 755 mmHg 74%
    Show more